This is the latest recevied weather packets stored in our database for station/object WB9TLH-11. If no packets are shown the sender has not sent any weather packets the latest 10 day(s).
| Time | Temp. | Humidity | Pressure | Rain* | Wind** | Luminosity | Snow |
|---|---|---|---|---|---|---|---|
| 1777830057 | 15.56° C | 37% | 1018.6 hPa | 0 mm | - | - | - |
| 1777829757 | 15.56° C | 38% | 1018.6 hPa | 0 mm | - | - | - |
| 1777829457 | 15.56° C | 38% | 1018.8 hPa | 0 mm | - | - | - |
| 1777829157 | 15.56° C | 38% | 1018.6 hPa | 0 mm | - | - | - |
| 1777828857 | 15.56° C | 36% | 1018.7 hPa | 0 mm | - | - | - |
| 1777828557 | 15.56° C | 42% | 1018.7 hPa | 0 mm | - | - | - |
| 1777828257 | 15.56° C | 40% | 1018.7 hPa | 0 mm | - | - | - |
| 1777827957 | 15° C | 39% | 1018.8 hPa | 0 mm | - | - | - |
| 1777827657 | 15° C | 40% | 1019 hPa | 0 mm | - | - | - |
| 1777827357 | 15° C | 37% | 1019.1 hPa | 0 mm | - | - | - |
| 1777827057 | 15.56° C | 40% | 1019.2 hPa | 0 mm | - | - | - |
| 1777826757 | 15° C | 39% | 1019.2 hPa | 0 mm | - | - | - |
| 1777826457 | 15° C | 39% | 1019.3 hPa | 0 mm | - | - | - |
| 1777826157 | 15° C | 40% | 1019.4 hPa | 0 mm | - | - | - |
| 1777825857 | 14.44° C | 37% | 1019.4 hPa | 0 mm | - | - | - |
| 1777825557 | 14.44° C | 38% | 1019.5 hPa | 0 mm | - | - | - |
| 1777825257 | 14.44° C | 38% | 1019.5 hPa | 0 mm | - | - | - |
| 1777824957 | 14.44° C | 37% | 1019.7 hPa | 0 mm | - | - | - |
| 1777824657 | 14.44° C | 41% | 1019.6 hPa | 0 mm | - | - | - |
| 1777824357 | 14.44° C | 38% | 1019.8 hPa | 0 mm | - | - | - |
| 1777824057 | 14.44° C | 39% | 1019.7 hPa | 0 mm | - | - | - |
| 1777823757 | 14.44° C | 38% | 1019.8 hPa | 0 mm | - | - | - |
| 1777823457 | 13.89° C | 41% | 1019.9 hPa | 0 mm | - | - | - |
| 1777823157 | 13.89° C | 39% | 1020.1 hPa | 0 mm | - | - | - |
| 1777822857 | 13.33° C | 41% | 1020.2 hPa | 0 mm | - | - | - |
* Rain latest hour (hover to see other rain measurements)
** Current wind speed in m/s (hover to see current wind gust speed)